User: anonymous   Login
Location: Peach Mountain Observatory
(42.3967°N, 83.9367°W)
Time: 21:46:26
(UTC-05:00)
Language:

LightSail 2 - Orbit

View from above orbital plane
View from above orbital plane
View from above satellite
View from above satellite

Ground track
Ground track

The orbit data is extracted from the following two-line orbital elements,

1 44420U 19036AC  20018.29264524 +.00006804 +00000-0 +15277-2 0  9990
2 44420 024.0081 341.8633 0012324 253.5129 106.4012 14.54165018028287
Epoch (UTC): 18 January 2020 07:01:24
Eccentricity: 0.0012324
inclination: 24.0081°
perigee height: 703 km
apogee height: 721 km
right ascension of ascending node: 341.8633°
argument of perigee: 253.5129°
revolutions per day: 14.54165018
mean anomaly at epoch: 106.4012°
orbit number at epoch: 2828

The dashed part of the orbit path shows where the satellite is in the earth's shadow,  

DLR